• In Uzbekistan
  • List of Countries
  • For 7 days
  • Water Temperature
  • Satellite Maps
  • Weather Map
  • Weather Widgets
  • user-avatar
    Login

    Hourly Weather Nanning

    Today, 26 September, Wednesday

    Time Temperature Precipitation Wind Pressure Humidity
    00:00 +27°C° 0 mm 2 mps 748 mmHg 86%
    01:00 +27°C° 0 mm 3 mps 748 mmHg 89%
    02:00 +27°C° 0 mm 2 mps 748 mmHg 90%
    03:00 +27°C° 0 mm 2 mps 748 mmHg 92%
    04:00 +26°C° 0 mm 2 mps 748 mmHg 93%
    05:00 +27°C° 0.1 mm 2 mps 748 mmHg 92%
    06:00 +27°C° 0.1 mm 2 mps 749 mmHg 90%
    07:00 +28°C° 0 mm 3 mps 749 mmHg 88%
    08:00 +29°C° 0.8 mm 3 mps 749 mmHg 82%
    09:00 +30°C° 0.8 mm 3 mps 749 mmHg 77%
    10:00 +33°C° 0.8 mm 3 mps 749 mmHg 71%
    11:00 +33°C° 0.9 mm 3 mps 749 mmHg 69%
    12:00 +34°C° 0.9 mm 3 mps 748 mmHg 67%
    13:00 +34°C° 0 mm 3 mps 748 mmHg 63%
    14:00 +34°C° 0.4 mm 3 mps 748 mmHg 65%
    15:00 +34°C° 0.4 mm 3 mps 747 mmHg 66%
    16:00 +34°C° 0.4 mm 3 mps 747 mmHg 68%
    17:00 +31°C° 0.5 mm 3 mps 747 mmHg 74%
    18:00 +30°C° 0.5 mm 2 mps 747 mmHg 80%
    19:00 +29°C° 0.5 mm 2 mps 748 mmHg 86%
    20:00 +28°C° 1 mm 2 mps 748 mmHg 88%
    21:00 +28°C° 1 mm 2 mps 749 mmHg 89%
    22:00 +28°C° 1 mm 2 mps 749 mmHg 90%
    23:00 +27°C° 0.8 mm 2 mps 749 mmHg 91%

    Tomorrow, 27 September, Thursday

    Time Temperature Precipitation Wind Pressure Humidity
    00:00 +27°C° 0.8 mm 2 mps 749 mmHg 92%
    01:00 +27°C° 0.8 mm 2 mps 749 mmHg 94%
    02:00 +27°C° 0.9 mm 2 mps 749 mmHg 94%
    03:00 +26°C° 0.9 mm 2 mps 749 mmHg 95%
    04:00 +26°C° 0.9 mm 2 mps 749 mmHg 95%
    05:00 +27°C° 0.9 mm 2 mps 749 mmHg 94%
    06:00 +27°C° 0.9 mm 2 mps 749 mmHg 92%
    07:00 +28°C° 0.9 mm 2 mps 750 mmHg 90%
    08:00 +28°C° 1.1 mm 2 mps 750 mmHg 86%
    09:00 +29°C° 1.1 mm 3 mps 750 mmHg 81%
    10:00 +30°C° 1.1 mm 3 mps 750 mmHg 77%
    11:00 +31°C° 1.1 mm 3 mps 750 mmHg 76%
    12:00 +31°C° 1.1 mm 3 mps 750 mmHg 74%
    13:00 +31°C° 1.1 mm 3 mps 749 mmHg 73%
    14:00 +31°C° 1.3 mm 3 mps 749 mmHg 75%
    15:00 +31°C° 1.3 mm 3 mps 748 mmHg 76%
    16:00 +30°C° 1.3 mm 3 mps 748 mmHg 78%
    17:00 +29°C° 0.5 mm 3 mps 749 mmHg 81%
    18:00 +28°C° 0.5 mm 2 mps 749 mmHg 83%
    19:00 +27°C° 0.5 mm 2 mps 750 mmHg 86%
    20:00 +27°C° 0 mm 2 mps 750 mmHg 86%
    21:00 +26°C° 0 mm 2 mps 751 mmHg 86%
    22:00 +26°C° 0 mm 2 mps 751 mmHg 86%
    23:00 +25°C° 0 mm 2 mps 751 mmHg 85%

    Day after tomorrow, 28 September, Friday

    Time Temperature Precipitation Wind Pressure Humidity
    00:00 +25°C° 0 mm 2 mps 751 mmHg 85%
    01:00 +25°C° 0 mm 2 mps 751 mmHg 85%
    02:00 +25°C° 0 mm 2 mps 751 mmHg 84%
    03:00 +25°C° 0 mm 2 mps 751 mmHg 84%
    04:00 +24°C° 0 mm 2 mps 750 mmHg 84%
    05:00 +24°C° 0 mm 2 mps 751 mmHg 84%
    06:00 +25°C° 0 mm 3 mps 751 mmHg 83%
    07:00 +25°C° 0 mm 3 mps 752 mmHg 82%
    08:00 +25°C° 0 mm 3 mps 752 mmHg 80%
    09:00 +26°C° 0 mm 3 mps 752 mmHg 77%
    10:00 +27°C° 0 mm 3 mps 753 mmHg 75%
    11:00 +28°C° 0 mm 3 mps 752 mmHg 72%
    12:00 +29°C° 0 mm 3 mps 751 mmHg 69%
    13:00 +30°C° 0 mm 4 mps 751 mmHg 66%
    14:00 +30°C° 0 mm 3 mps 750 mmHg 66%
    15:00 +30°C° 0 mm 3 mps 750 mmHg 67%
    16:00 +30°C° 0 mm 3 mps 749 mmHg 67%
    17:00 +29°C° 0 mm 3 mps 749 mmHg 71%
    18:00 +28°C° 0 mm 2 mps 750 mmHg 75%
    19:00 +27°C° 0 mm 2 mps 750 mmHg 78%
    20:00 +26°C° 0 mm 2 mps 751 mmHg 79%
    21:00 +26°C° 0 mm 2 mps 751 mmHg 80%
    22:00 +26°C° 0 mm 2 mps 752 mmHg 81%
    23:00 +25°C° 0 mm 2 mps 751 mmHg 81%

    29 September, Saturday

    Time Temperature Precipitation Wind Pressure Humidity
    00:00 +25°C° 0 mm 2 mps 751 mmHg 81%
    01:00 +25°C° 0 mm 2 mps 751 mmHg 81%
    02:00 +24°C° 0 mm 2 mps 751 mmHg 81%
    03:00 +24°C° 0 mm 2 mps 750 mmHg 81%
    04:00 +24°C° 0 mm 2 mps 750 mmHg 82%
    05:00 +24°C° 0 mm 2 mps 750 mmHg 80%
    06:00 +25°C° 0 mm 2 mps 751 mmHg 78%
    07:00 +25°C° 0 mm 3 mps 751 mmHg 77%
    08:00 +27°C° 0 mm 3 mps 751 mmHg 70%
    09:00 +28°C° 0 mm 3 mps 752 mmHg 63%
    10:00 +30°C° 0 mm 4 mps 752 mmHg 56%
    11:00 +32°C° 0 mm 4 mps 751 mmHg 54%
    12:00 +33°C° 0 mm 4 mps 750 mmHg 51%
    13:00 +33°C° 0 mm 3 mps 749 mmHg 48%
    14:00 +33°C° 0 mm 3 mps 749 mmHg 50%
    15:00 +33°C° 0 mm 3 mps 749 mmHg 52%
    16:00 +33°C° 0 mm 3 mps 748 mmHg 54%
    17:00 +30°C° 0 mm 3 mps 749 mmHg 58%
    18:00 +28°C° 0 mm 2 mps 749 mmHg 62%
    19:00 +27°C° 0 mm 2 mps 749 mmHg 67%
    20:00 +27°C° 0 mm 1 mps 750 mmHg 67%
    21:00 +26°C° 0 mm 1 mps 750 mmHg 68%
    22:00 +26°C° 0 mm 1 mps 751 mmHg 68%
    23:00 +26°C° 0 mm 1 mps 750 mmHg 70%

    30 September, Sunday

    Time Temperature Precipitation Wind Pressure Humidity
    00:00 +25°C° 0 mm 1 mps 750 mmHg 71%
    01:00 +25°C° 0 mm 1 mps 750 mmHg 72%
    02:00 +24°C° 0 mm 1 mps 750 mmHg 72%
    03:00 +24°C° 0 mm 1 mps 750 mmHg 72%
    04:00 +24°C° 0 mm 2 mps 749 mmHg 73%
    05:00 +24°C° 0 mm 2 mps 750 mmHg 72%
    06:00 +24°C° 0 mm 2 mps 751 mmHg 70%
    07:00 +25°C° 0 mm 2 mps 751 mmHg 69%
    08:00 +27°C° 0 mm 2 mps 751 mmHg 62%
    09:00 +28°C° 0 mm 2 mps 752 mmHg 55%
    10:00 +30°C° 0 mm 2 mps 752 mmHg 47%
    11:00 +31°C° 0 mm 2 mps 751 mmHg 45%
    12:00 +32°C° 0 mm 2 mps 751 mmHg 43%
    13:00 +34°C° 0 mm 2 mps 750 mmHg 41%
    14:00 +32°C° 0 mm 2 mps 750 mmHg 43%
    15:00 +32°C° 0 mm 2 mps 749 mmHg 45%
    16:00 +32°C° 0 mm 2 mps 749 mmHg 47%
    17:00 +30°C° 0 mm 2 mps 749 mmHg 52%
    18:00 +28°C° 0 mm 2 mps 750 mmHg 56%
    19:00 +27°C° 0 mm 2 mps 750 mmHg 61%
    20:00 +26°C° 0 mm 1 mps 751 mmHg 62%
    21:00 +26°C° 0 mm 1 mps 751 mmHg 63%
    22:00 +25°C° 0 mm 1 mps 752 mmHg 63%
    23:00 +25°C° 0 mm 1 mps 752 mmHg 64%

    1 October, Monday

    Time Temperature Precipitation Wind Pressure Humidity
    00:00 +25°C° 0 mm 1 mps 752 mmHg 64%
    01:00 +24°C° 0 mm 1 mps 752 mmHg 65%
    02:00 +24°C° 0 mm 1 mps 752 mmHg 65%
    03:00 +23°C° 0 mm 1 mps 752 mmHg 66%
    04:00 +23°C° 0 mm 1 mps 752 mmHg 67%
    05:00 +24°C° 0 mm 1 mps 752 mmHg 67%
    06:00 +24°C° 0 mm 1 mps 753 mmHg 67%
    07:00 +24°C° 0 mm 1 mps 753 mmHg 67%
    08:00 +26°C° 0 mm 2 mps 753 mmHg 60%
    09:00 +28°C° 0 mm 2 mps 754 mmHg 54%
    10:00 +30°C° 0 mm 2 mps 754 mmHg 47%
    11:00 +31°C° 0 mm 2 mps 753 mmHg 45%
    12:00 +32°C° 0 mm 2 mps 752 mmHg 42%
    13:00 +34°C° 0 mm 2 mps 752 mmHg 39%
    14:00 +32°C° 0 mm 2 mps 752 mmHg 41%
    15:00 +32°C° 0 mm 2 mps 751 mmHg 43%
    16:00 +32°C° 0 mm 2 mps 751 mmHg 46%
    17:00 +30°C° 0 mm 2 mps 751 mmHg 50%
    18:00 +28°C° 0 mm 2 mps 752 mmHg 54%
    19:00 +27°C° 0 mm 1 mps 752 mmHg 58%
    20:00 +26°C° 0 mm 1 mps 752 mmHg 59%
    21:00 +26°C° 0 mm 1 mps 753 mmHg 60%
    22:00 +25°C° 0 mm 1 mps 753 mmHg 61%
    23:00 +25°C° 0 mm 1 mps 753 mmHg 63%
    Show more